Weather History for KMXF - March, 2014

Change the Weather History Date:

Sunday, March 2, 2014

  Actual Average Record
Temperature  
Mean Temperature 62 °F -  
Max Temperature 77 °F 65 °F 82 °F (1997)
Min Temperature 46 °F 43 °F 26 °F (2005)
Degree Days  
Heating Degree Days 4    
Growing Degree Days 12 (Base 50)    
Moisture  
Dew Point 48 °F    
Average Humidity 80    
Maximum Humidity 100    
Minimum Humidity 37    
Precipitation  
Precipitation 0.00 in - - ()
Sea Level Pressure  
Sea Level Pressure 30.13 in    
Wind  
Wind Speed 3 mph (SSE)    
Max Wind Speed 13 mph    
Max Gust Speed -    
Visibility 6 miles    
Events Fog    
Averages and records for this station are not official NWS values.
T = Trace of Precipitation, MM = Missing Value Source: NWS Daily Summary

Daily Weather History Graph

Daily Weather History Graph

Search for Another Location

Airport or City:

Trip Planner

Search our weather history database for the weather conditions in past years. The results will help you decide how hot, cold, wet, or windy it might be!

Date:

Astronomy

Mar. 02, 2014 Rise Set
Actual Time 6:11 AM CST 5:43 PM CST
Civil Twilight 5:47 AM CST 6:08 PM CST
Nautical Twilight 5:18 AM CST 6:36 PM CST
Astronomical Twilight 4:50 AM CST 7:05 PM CST
Moon 6:49 AM CST (3/2) 7:30 PM CST (3/2)
Length of Visible Light 12h 21m
Length of Day
11h 32m
Waxing Crescent, 3% of the Moon is Illuminated
Mar 2
Waxing Crescent
Mar 8
First Quarter
Mar 16
Full
Mar 23
Last Quarter
Mar 30
New

Hourly Weather History & Observations

Time (CST) Temp. Dew Point Humidity Pressure Visibility Wind Dir Wind Speed Gust Speed Precip Events Conditions
12:58 AM 53.1 °F 50.7 °F 92% 30.17 in 10.0 mi SE 2.3 mph - N/A   Clear
1:58 AM 51.6 °F 49.6 °F 93% 30.15 in 2.0 mi Calm Calm - N/A   Clear
2:03 AM 50.0 °F 50.0 °F 100% 30.14 in 1.5 mi Calm Calm - N/A   Clear
2:08 AM 50.0 °F 48.2 °F 94% 30.15 in 3.0 mi WNW 2.3 mph - N/A   Clear
2:58 AM 49.6 °F 49.5 °F 99% 30.17 in 4.0 mi NW 5.8 mph - N/A   Clear
3:58 AM 48.7 °F 48.4 °F 99% 30.16 in 10.0 mi SE 2.3 mph - N/A   Clear
4:58 AM 47.7 °F 47.5 °F 99% 30.18 in 8.0 mi NE 2.3 mph - N/A   Clear
5:18 AM 48.2 °F 48.2 °F 100% 30.17 in 2.0 mi NNW 2.3 mph - N/A   Clear
5:23 AM 48.2 °F 48.2 °F 100% 30.17 in 1.2 mi North 2.3 mph - N/A   Clear
5:28 AM 48.2 °F 48.2 °F 100% 30.17 in 1.8 mi North 3.5 mph - N/A   Clear
5:33 AM 48.2 °F 48.2 °F 100% 30.18 in 1.8 mi NNW 3.5 mph - N/A   Clear
5:38 AM 48.2 °F 48.2 °F 100% 30.18 in 0.5 mi NNW 3.5 mph - N/A Fog Fog
5:43 AM 48.2 °F 46.4 °F 93% 30.18 in 0.5 mi North 3.5 mph - N/A Fog Fog
5:48 AM 46.4 °F 46.4 °F 100% 30.18 in 1.2 mi NNE 2.3 mph - N/A   Clear
5:53 AM 46.4 °F 46.4 °F 100% 30.18 in 6.0 mi Calm Calm - N/A   Clear
5:58 AM 46.2 °F 45.9 °F 99% 30.19 in 1.8 mi North 1.2 mph - N/A   Clear
6:03 AM 46.4 °F 46.4 °F 100% 30.18 in 1.8 mi NE 2.3 mph - N/A   Clear
6:08 AM 48.2 °F 48.2 °F 100% 30.19 in 6.0 mi Calm Calm - N/A   Clear
6:23 AM 46.4 °F 46.4 °F 100% 30.18 in 0.8 mi Calm Calm - N/A   Clear
6:33 AM 46.4 °F 46.4 °F 100% 30.18 in 2.0 mi ESE 2.3 mph - N/A   Clear
6:38 AM 46.4 °F 46.4 °F 100% 30.19 in 1.2 mi ESE 2.3 mph - N/A   Clear
6:43 AM 46.4 °F 46.4 °F 100% 30.18 in 0.8 mi ESE 1.2 mph - N/A   Clear
6:48 AM 46.4 °F 46.4 °F 100% 30.19 in 1.5 mi North - - N/A   Clear
6:53 AM 48.2 °F 46.4 °F 93% 30.19 in 9.0 mi ENE 1.2 mph - N/A   Clear
6:58 AM 47.5 °F 47.3 °F 99% 30.20 in 10.0 mi ESE 1.2 mph - N/A   Clear
7:58 AM 53.6 °F 50.4 °F 89% 30.22 in 10.0 mi Calm Calm - N/A   Clear
8:58 AM 59.4 °F 52.0 °F 77% 30.23 in 10.0 mi Variable 2.3 mph - N/A   Clear
9:58 AM 66.7 °F 48.9 °F 53% 30.21 in 10.0 mi SSW 9.2 mph - N/A   Clear
10:58 AM 71.8 °F 47.1 °F 41% 30.19 in 10.0 mi SSW 10.4 mph - N/A   Clear
11:58 AM 74.5 °F 47.8 °F 39% 30.16 in 10.0 mi Variable 5.8 mph - N/A   Clear
12:58 PM 75.7 °F 49.3 °F 39% 30.12 in 10.0 mi SW 10.4 mph - N/A   Clear
1:58 PM 75.9 °F 49.1 °F 39% 30.08 in 10.0 mi South 9.2 mph - N/A   Clear
2:58 PM 77.7 °F 49.6 °F 37% 30.06 in 10.0 mi SSW 8.1 mph - N/A   Clear
3:58 PM 75.9 °F 48.6 °F 38% 30.04 in 10.0 mi South 5.8 mph - N/A   Clear
4:58 PM 74.8 °F 49.1 °F 40% 30.02 in 10.0 mi South 8.1 mph - N/A   Overcast
5:58 PM 71.8 °F 48.9 °F 44% 30.01 in 10.0 mi South 4.6 mph - N/A   Overcast
6:58 PM 64.9 °F 48.9 °F 56% 29.99 in 10.0 mi South 8.1 mph - N/A   Partly Cloudy
7:58 PM 65.7 °F 47.5 °F 52% 29.97 in 10.0 mi South 12.7 mph - N/A   Clear
8:58 PM 66.0 °F 47.8 °F 52% 29.98 in 10.0 mi South 9.2 mph - N/A   Clear
9:58 PM 64.0 °F 49.6 °F 59% 29.98 in 10.0 mi South 9.2 mph - N/A   Clear
10:58 PM 61.7 °F 51.1 °F 68% 29.98 in 10.0 mi SSW 6.9 mph - N/A   Clear
11:58 PM 60.3 °F 52.5 °F 76% 29.97 in 10.0 mi SSW 3.5 mph - N/A   Mostly Cloudy